| time (UTC) | temp F | wind direction | speed knots | gust knots | rain 1hr in | rain 24hr in | rain mn in | humidity % | barometer mb |
| 20260503184550 | 69 | 184 | 2.6 | 5.2 | 0.00 | 0.00 | 0.00 | 36 | 1019.3 |
| 20260503184101 | 69 | 303 | 0.9 | 6.1 | 0.00 | 0.00 | 0.00 | 38 | 1019.5 |
| 20260503183551 | 68 | 177 | 2.6 | 5.2 | 0.00 | 0.00 | 0.00 | 41 | 1019.5 |
| 20260503182549 | 69 | 169 | 1.7 | 8.7 | 0.00 | 0.00 | 0.00 | 39 | 1019.6 |
| 20260503181553 | 69 | 228 | 3.5 | 6.1 | 0.00 | 0.00 | 0.00 | 41 | 1019.7 |
| 20260503181056 | 68 | 203 | 1.7 | 6.1 | 0.00 | 0.00 | 0.00 | 39 | 1019.6 |
| 20260503180542 | 70 | 131 | 3.5 | 6.1 | 0.00 | 0.00 | 0.00 | 38 | 1019.7 |
| 20260503180055 | 69 | 185 | 2.6 | 5.2 | 0.00 | 0.00 | 0.00 | 40 | 1019.7 |
| 20260503175604 | 68 | 210 | 1.7 | 5.2 | 0.00 | 0.00 | 0.00 | 44 | 1019.8 |
| 20260503175052 | 68 | 27 | 0.9 | 4.3 | 0.00 | 0.00 | 0.00 | 41 | 1019.8 |
| 20260503173603 | 67 | 271 | 1.7 | 3.5 | 0.00 | 0.00 | 0.00 | 42 | 1019.9 |
| 20260503173110 | 67 | 174 | 0.9 | 2.6 | 0.00 | 0.00 | 0.00 | 45 | 1020.0 |
| 20260503172553 | 67 | 240 | 0.0 | 1.7 | 0.00 | 0.00 | 0.00 | 43 | 1020.1 |
| 20260503172100 | 68 | 227 | 0.9 | 5.2 | 0.00 | 0.00 | 0.00 | 41 | 1020.2 |
| 20260503171057 | 67 | 160 | 3.5 | 6.1 | 0.00 | 0.00 | 0.00 | 41 | 1020.2 |
| 20260503170547 | 68 | 257 | 1.7 | 5.2 | 0.00 | 0.00 | 0.00 | 45 | 1020.2 |
| 20260503170130 | 67 | 174 | 0.9 | 5.2 | 0.00 | 0.00 | 0.00 | 45 | 1020.2 |
| 20260503150556 | 61 | 184 | 1.7 | 5.2 | 0.00 | 0.00 | 0.00 | 54 | 1020.9 |
| 20260503150105 | 61 | 184 | 2.6 | 7.0 | 0.00 | 0.00 | 0.00 | 55 | 1021.0 |
| 20260503131053 | 53 | 251 | 0.0 | 0.0 | 0.00 | 0.00 | 0.00 | 76 | 1020.4 |
| 20260503110548 | 43 | 303 | 0.0 | 0.0 | 0.00 | 0.02 | 0.00 | 90 | 1019.7 |
| 20260503081550 | 46 | 303 | 0.0 | 0.0 | 0.00 | 0.02 | 0.00 | 85 | 1018.6 |
| 20260503081056 | 46 | 303 | 0.0 | 0.0 | 0.00 | 0.02 | 0.00 | 85 | 1018.5 |
| 20260503080549 | 46 | 303 | 0.0 | 0.0 | 0.00 | 0.02 | 0.00 | 85 | 1018.4 |
| 20260503072553 | 48 | 303 | 0.0 | 0.0 | 0.00 | 0.03 | 0.00 | 79 | 1018.1 |
| 20260503072102 | 48 | 303 | 0.0 | 0.0 | 0.00 | 0.03 | 0.00 | 78 | 1018.0 |
| 20260503071548 | 48 | 303 | 0.0 | 0.0 | 0.00 | 0.03 | 0.00 | 77 | 1018.0 |
| 20260503071056 | 48 | 303 | 0.0 | 0.0 | 0.00 | 0.03 | 0.00 | 77 | 1018.0 |
| 20260503070549 | 48 | 303 | 0.0 | 0.0 | 0.00 | 0.03 | 0.00 | 76 | 1018.0 |
| 20260503055056 | 48 | 303 | 0.0 | 0.0 | 0.00 | 0.04 | 0.00 | 79 | 1017.7 |
| 20260503054546 | 48 | 303 | 0.0 | 0.0 | 0.00 | 0.04 | 0.00 | 80 | 1017.8 |
| 20260503053548 | 48 | 303 | 0.0 | 0.0 | 0.00 | 0.04 | 0.00 | 80 | 1017.7 |
| 20260503053057 | 48 | 303 | 0.0 | 0.0 | 0.00 | 0.04 | 0.00 | 80 | 1017.7 |
| 20260503052559 | 48 | 303 | 0.0 | 0.0 | 0.00 | 0.04 | 0.00 | 80 | 1017.7 |
| 20260503052046 | 48 | 303 | 0.0 | 0.0 | 0.00 | 0.04 | 0.00 | 80 | 1017.7 |
| 20260503051558 | 48 | 303 | 0.0 | 0.0 | 0.00 | 0.04 | 0.00 | 79 | 1017.6 |
| 20260503051046 | 48 | 303 | 0.0 | 0.0 | 0.00 | 0.04 | 0.00 | 79 | 1017.6 |
| 20260503050555 | 49 | 303 | 0.0 | 0.0 | 0.00 | 0.04 | 0.00 | 79 | 1017.6 |
| 20260503050509 | 48 | 303 | 0.0 | 0.0 | 0.00 | 0.04 | 0.00 | 79 | 1017.3 |
| 20260503045548 | 49 | 303 | 0.0 | 0.0 | 0.00 | 0.04 | 0.00 | 78 | 1017.5 |
| 20260503045054 | 49 | 303 | 0.0 | 0.0 | 0.00 | 0.04 | 0.00 | 80 | 1017.4 |
| 20260503044600 | 49 | 303 | 0.0 | 0.0 | 0.00 | 0.04 | 0.00 | 79 | 1017.4 |
| 20260503044049 | 49 | 303 | 0.0 | 0.0 | 0.00 | 0.04 | 0.00 | 78 | 1017.4 |
| 20260503043557 | 49 | 303 | 0.0 | 0.0 | 0.00 | 0.04 | 0.00 | 78 | 1017.3 |
| 20260503043102 | 49 | 303 | 0.0 | 0.0 | 0.00 | 0.04 | 0.00 | 77 | 1017.3 |
| 20260503042550 | 49 | 303 | 0.0 | 0.0 | 0.00 | 0.04 | 0.00 | 76 | 1017.3 |
| 20260503042100 | 49 | 303 | 0.0 | 0.0 | 0.00 | 0.04 | 0.00 | 78 | 1017.3 |
| 20260503041548 | 49 | 303 | 0.0 | 0.0 | 0.00 | 0.04 | 0.00 | 76 | 1017.3 |
| 20260503040550 | 50 | 303 | 0.0 | 0.0 | 0.00 | 0.04 | 0.00 | 75 | 1017.2 |
| 20260503040509 | 49 | 303 | 0.0 | 0.0 | 0.00 | 0.04 | 0.00 | 75 | 1016.9 |
| 20260503040132 | 50 | 303 | 0.0 | 0.0 | 0.00 | 0.04 | 0.00 | 74 | 1017.1 |
| 20260503035057 | 50 | 303 | 0.0 | 0.0 | 0.00 | 0.04 | 0.04 | 74 | 1017.1 |
| 20260503034546 | 50 | 303 | 0.0 | 0.0 | 0.00 | 0.04 | 0.04 | 74 | 1017.1 |
| 20260503034056 | 50 | 303 | 0.0 | 0.0 | 0.00 | 0.04 | 0.04 | 74 | 1017.1 |
| 20260503033547 | 50 | 303 | 0.0 | 0.0 | 0.00 | 0.04 | 0.04 | 74 | 1017.1 |
| 20260503033056 | 50 | 303 | 0.0 | 0.0 | 0.00 | 0.04 | 0.04 | 72 | 1017.0 |
| 20260503032542 | 51 | 303 | 0.0 | 0.0 | 0.00 | 0.04 | 0.04 | 71 | 1017.0 |
| 20260503032049 | 51 | 303 | 0.0 | 0.0 | 0.00 | 0.04 | 0.04 | 72 | 1017.0 |
| 20260503031559 | 51 | 303 | 0.0 | 0.0 | 0.00 | 0.04 | 0.04 | 72 | 1017.0 |
| 20260503031049 | 51 | 303 | 0.0 | 0.0 | 0.00 | 0.04 | 0.04 | 71 | 1016.9 |
| 20260503030559 | 51 | 303 | 0.0 | 0.0 | 0.00 | 0.04 | 0.04 | 70 | 1016.9 |
| 20260503030511 | 51 | 303 | 0.0 | 0.0 | 0.00 | 0.04 | 0.04 | 70 | 1016.6 |
| 20260503030119 | 51 | 303 | 0.0 | 0.0 | 0.00 | 0.04 | 0.04 | 70 | 1016.8 |
| 20260503030005 | 51 | 303 | 0.0 | 0.0 | 0.00 | 0.04 | 0.04 | 70 | 1016.5 |
| 20260503025048 | 52 | 303 | 0.0 | 0.0 | 0.00 | 0.04 | 0.04 | 68 | 1016.6 |
| 20260503024601 | 52 | 303 | 0.0 | 0.0 | 0.00 | 0.04 | 0.04 | 68 | 1016.6 |
| 20260503024052 | 52 | 303 | 0.0 | 0.0 | 0.00 | 0.04 | 0.04 | 68 | 1016.6 |
| 20260503023054 | 53 | 303 | 0.0 | 0.0 | 0.00 | 0.04 | 0.04 | 66 | 1016.4 |
| 20260503022600 | 53 | 303 | 0.0 | 0.0 | 0.00 | 0.04 | 0.04 | 66 | 1016.3 |
| 20260503022047 | 53 | 303 | 0.0 | 0.0 | 0.00 | 0.04 | 0.04 | 66 | 1016.3 |
| 20260503021558 | 53 | 303 | 0.0 | 0.0 | 0.00 | 0.04 | 0.04 | 64 | 1016.2 |
| 20260503020557 | 54 | 303 | 0.0 | 0.0 | 0.00 | 0.04 | 0.04 | 63 | 1015.9 |
| 20260503020106 | 54 | 303 | 0.0 | 0.0 | 0.00 | 0.04 | 0.04 | 63 | 1015.9 |
| 20260503015551 | 55 | 303 | 0.0 | 0.0 | 0.00 | 0.04 | 0.04 | 63 | 1015.9 |
| 20260503015019 | 54 | 303 | 0.0 | 0.0 | 0.00 | 0.04 | 0.04 | 61 | 1015.4 |
| 20260503014546 | 55 | 303 | 0.0 | 0.0 | 0.00 | 0.04 | 0.04 | 62 | 1015.8 |
| 20260503014057 | 55 | 303 | 0.0 | 0.0 | 0.00 | 0.04 | 0.04 | 59 | 1015.6 |
| 20260503013546 | 56 | 303 | 0.0 | 0.0 | 0.00 | 0.04 | 0.04 | 60 | 1015.6 |
| 20260503013054 | 56 | 303 | 0.0 | 0.0 | 0.00 | 0.04 | 0.04 | 58 | 1015.5 |
| 20260503012600 | 56 | 303 | 0.0 | 0.0 | 0.00 | 0.04 | 0.04 | 56 | 1015.4 |
| 20260503012050 | 57 | 303 | 0.0 | 0.0 | 0.00 | 0.04 | 0.04 | 55 | 1015.3 |
| 20260503011558 | 57 | 303 | 0.0 | 0.9 | 0.00 | 0.04 | 0.04 | 57 | 1015.3 |
| 20260503011048 | 57 | 303 | 0.0 | 0.9 | 0.00 | 0.04 | 0.04 | 54 | 1015.2 |
| 20260503010552 | 58 | 303 | 0.0 | 0.0 | 0.00 | 0.04 | 0.04 | 55 | 1015.2 |
| 20260503010101 | 58 | 303 | 0.0 | 0.0 | 0.00 | 0.04 | 0.04 | 51 | 1015.1 |
| 20260503005057 | 59 | 303 | 0.0 | 0.9 | 0.00 | 0.04 | 0.04 | 49 | 1015.0 |
| 20260503004544 | 59 | 303 | 0.0 | 0.0 | 0.00 | 0.04 | 0.04 | 55 | 1014.9 |
| 20260503004058 | 59 | 303 | 0.0 | 0.9 | 0.00 | 0.04 | 0.04 | 52 | 1014.9 |
| 20260503003546 | 60 | 303 | 0.0 | 0.9 | 0.00 | 0.04 | 0.04 | 54 | 1014.8 |
| 20260503003056 | 60 | 303 | 0.0 | 0.9 | 0.00 | 0.04 | 0.04 | 54 | 1014.7 |
| 20260503003004 | 59 | 303 | 0.0 | 0.9 | 0.00 | 0.04 | 0.04 | 56 | 1014.3 |
| 20260503002103 | 60 | 303 | 0.0 | 1.7 | 0.00 | 0.04 | 0.04 | 54 | 1014.6 |
| 20260503001552 | 61 | 303 | 0.9 | 1.7 | 0.00 | 0.04 | 0.04 | 51 | 1014.5 |
| 20260503001100 | 61 | 303 | 0.0 | 1.7 | 0.00 | 0.04 | 0.04 | 48 | 1014.3 |
| 20260503000548 | 62 | 303 | 0.0 | 1.7 | 0.00 | 0.04 | 0.04 | 47 | 1014.2 |
| 20260503000058 | 62 | 303 | 0.0 | 0.9 | 0.00 | 0.04 | 0.04 | 46 | 1014.1 |
| 20260502235603 | 62 | 303 | 0.0 | 0.9 | 0.00 | 0.04 | 0.04 | 46 | 1014.0 |
| 20260502235048 | 62 | 303 | 0.0 | 1.7 | 0.00 | 0.04 | 0.04 | 46 | 1013.8 |
| 20260502234557 | 62 | 303 | 0.9 | 2.6 | 0.00 | 0.04 | 0.04 | 45 | 1013.8 |
| 20260502234050 | 63 | 303 | 0.9 | 2.6 | 0.00 | 0.04 | 0.04 | 45 | 1013.7 |
| 20260502233601 | 63 | 323 | 0.9 | 2.6 | 0.00 | 0.04 | 0.04 | 44 | 1013.7 |
| 20260502233051 | 63 | 323 | 0.9 | 2.6 | 0.00 | 0.04 | 0.04 | 45 | 1013.6 |
| 20260502232557 | 63 | 328 | 0.9 | 2.6 | 0.00 | 0.04 | 0.04 | 45 | 1013.5 |
| 20260502232046 | 63 | 328 | 0.9 | 3.5 | 0.00 | 0.04 | 0.04 | 43 | 1013.5 |
| 20260502231555 | 63 | 322 | 1.7 | 3.5 | 0.00 | 0.04 | 0.04 | 43 | 1013.5 |
| 20260502230553 | 63 | 219 | 0.9 | 2.6 | 0.00 | 0.04 | 0.04 | 42 | 1013.4 |
| 20260502225552 | 64 | 342 | 1.7 | 3.5 | 0.00 | 0.04 | 0.04 | 42 | 1013.3 |
| 20260502225104 | 64 | 316 | 1.7 | 3.5 | 0.00 | 0.04 | 0.04 | 41 | 1013.3 |
| 20260502224553 | 64 | 326 | 1.7 | 5.2 | 0.00 | 0.04 | 0.04 | 41 | 1013.3 |
| 20260502224101 | 64 | 322 | 1.7 | 4.3 | 0.00 | 0.04 | 0.04 | 39 | 1013.3 |
| 20260502223546 | 64 | 300 | 0.9 | 3.5 | 0.00 | 0.04 | 0.04 | 40 | 1013.2 |
| 20260502222556 | 65 | 329 | 1.7 | 3.5 | 0.00 | 0.04 | 0.04 | 40 | 1013.1 |
| 20260502222046 | 65 | 319 | 1.7 | 4.3 | 0.00 | 0.04 | 0.04 | 41 | 1013.0 |
| 20260502221556 | 65 | 259 | 0.9 | 4.3 | 0.00 | 0.04 | 0.04 | 39 | 1012.9 |
| 20260502221104 | 65 | 335 | 1.7 | 3.5 | 0.00 | 0.04 | 0.04 | 39 | 1012.9 |
| 20260502220552 | 65 | 320 | 1.7 | 4.3 | 0.00 | 0.04 | 0.04 | 40 | 1012.8 |
| 20260502215055 | 65 | 320 | 0.9 | 3.5 | 0.00 | 0.04 | 0.04 | 37 | 1012.7 |
| 20260502214603 | 65 | 331 | 1.7 | 3.5 | 0.00 | 0.04 | 0.04 | 38 | 1012.6 |
| 20260502213603 | 66 | 356 | 2.6 | 4.3 | 0.00 | 0.04 | 0.04 | 38 | 1012.5 |
| 20260502213054 | 66 | 350 | 1.7 | 4.3 | 0.00 | 0.04 | 0.04 | 39 | 1012.4 |
| 20260502212601 | 66 | 326 | 0.9 | 2.6 | 0.00 | 0.04 | 0.04 | 41 | 1012.3 |
| 20260502212104 | 66 | 330 | 1.7 | 3.5 | 0.00 | 0.04 | 0.04 | 42 | 1012.3 |
| 20260502211556 | 67 | 309 | 1.7 | 4.3 | 0.00 | 0.04 | 0.04 | 42 | 1012.4 |
| 20260502211103 | 66 | 180 | 1.7 | 3.5 | 0.00 | 0.04 | 0.04 | 43 | 1012.3 |
| 20260502210506 | 66 | 353 | 0.9 | 4.3 | 0.00 | 0.04 | 0.04 | 43 | 1011.7 |
| 20260502205103 | 67 | 304 | 1.7 | 2.6 | 0.00 | 0.04 | 0.04 | 41 | 1012.1 |
| 20260502204551 | 67 | 324 | 1.7 | 3.5 | 0.00 | 0.04 | 0.04 | 43 | 1012.1 |
| 20260502204058 | 67 | 331 | 1.7 | 3.5 | 0.00 | 0.04 | 0.04 | 43 | 1012.1 |
| 20260502203545 | 67 | 326 | 0.9 | 2.6 | 0.00 | 0.04 | 0.04 | 43 | 1012.1 |
| 20260502202557 | 68 | 326 | 1.7 | 7.8 | 0.00 | 0.04 | 0.04 | 43 | 1012.1 |
| 20260502202045 | 68 | 259 | 0.9 | 7.8 | 0.00 | 0.04 | 0.04 | 45 | 1012.1 |
| 20260502201556 | 69 | 273 | 1.7 | 4.3 | 0.00 | 0.04 | 0.04 | 40 | 1012.0 |
| 20260502201046 | 68 | 205 | 1.7 | 8.7 | 0.00 | 0.04 | 0.04 | 42 | 1012.1 |
| 20260502200052 | 68 | 191 | 2.6 | 7.0 | 0.00 | 0.04 | 0.04 | 44 | 1012.0 |
| 20260502195553 | 68 | 349 | 1.7 | 3.5 | 0.00 | 0.04 | 0.04 | 44 | 1012.1 |
| 20260502195103 | 68 | 314 | 0.9 | 5.2 | 0.00 | 0.04 | 0.04 | 45 | 1012.1 |
| 20260502194553 | 68 | 205 | 2.6 | 5.2 | 0.00 | 0.04 | 0.04 | 49 | 1012.2 |
| 20260502194059 | 68 | 200 | 1.7 | 4.3 | 0.00 | 0.04 | 0.04 | 48 | 1012.2 |
| 20260502193549 | 68 | 335 | 1.7 | 4.3 | 0.00 | 0.04 | 0.04 | 48 | 1012.1 |
| 20260502193101 | 68 | 337 | 0.0 | 2.6 | 0.00 | 0.04 | 0.04 | 50 | 1012.2 |
| 20260502192546 | 69 | 339 | 1.7 | 6.1 | 0.00 | 0.04 | 0.04 | 48 | 1012.1 |
| 20260502192056 | 69 | 264 | 1.7 | 6.1 | 0.00 | 0.04 | 0.04 | 47 | 1012.1 |
| 20260502191600 | 68 | 273 | 0.9 | 4.3 | 0.00 | 0.04 | 0.04 | 48 | 1012.1 |
| 20260502191052 | 69 | 330 | 0.9 | 2.6 | 0.00 | 0.04 | 0.04 | 49 | 1012.1 |
| 20260502190600 | 68 | 346 | 0.9 | 2.6 | 0.00 | 0.04 | 0.04 | 49 | 1012.1 |
| 20260502190501 | 68 | 346 | 0.9 | 2.6 | 0.00 | 0.04 | 0.04 | 49 | 1011.6 |
| 20260502185108 | 69 | 195 | 1.7 | 5.2 | 0.00 | 0.04 | 0.04 | 48 | 1012.0 |